Total_Precipitation_Accumulation
1.72 1.93 1.54 0.88 0.68 0.59 0.47 0.39 0.35 0.36 0.36 0.40 0.39 0.44 0.47 0.44 0.44 0.51 0.61 0.67 0.72 0.70 0.76 0.99 1.22 1.47 1.77 2.13 2.30 2.27 2.22 2.38 2.59 2.43 2.21 2.01 1.80 1.63 1.45 1.29 1.17 1.10 1.00 0.91
1.65 1.41 0.85 0.61 0.64 0.66 0.61 0.53 0.44 0.42 0.39 0.44 0.42 0.45 0.44 0.45 0.44 0.50 0.59 0.65 0.65 0.59 0.68 0.91 1.12 1.35 1.53 1.96 2.22 2.24 2.30 2.43 2.59 2.47 2.33 2.29 2.22 2.01 1.82 1.68 1.41 1.22 1.11 1.02
1.21 0.86 0.70 0.84 0.86 0.79 0.70 0.61 0.49 0.48 0.50 0.47 0.45 0.49 0.40 0.39 0.39 0.43 0.56 0.62 0.59 0.56 0.64 0.79 0.97 1.17 1.26 1.53 1.91 2.08 2.14 2.29 2.41 2.55 2.80 2.80 2.70 2.36 1.92 1.63 1.53 1.43 1.39 1.29
1.02 0.71 0.83 1.06 1.01 0.79 0.71 0.49 0.49 0.50 0.62 0.63 0.49 0.61 0.43 0.38 0.41 0.43 0.55 0.60 0.58 0.57 0.62 0.74 0.85 0.96 1.08 1.21 1.55 1.90 2.09 2.23 2.25 2.32 2.55 2.65 2.52 2.18 1.83 1.62 1.63 1.68 1.63 1.59
1.00 0.73 0.89 1.13 0.93 0.75 0.65 0.45 0.54 0.61 0.68 0.68 0.47 0.55 0.47 0.40 0.46 0.49 0.55 0.61 0.61 0.61 0.65 0.72 0.76 0.80 0.88 1.03 1.35 1.67 1.90 2.12 2.16 2.09 2.19 2.40 2.48 2.35 2.19 2.01 1.88 1.81 1.75 1.64
0.74 0.73 0.92 0.98 0.83 0.80 0.72 0.74 0.84 0.91 1.10 1.07 0.47 0.46 0.43 0.43 0.54 0.53 0.52 0.62 0.67 0.71 0.73 0.73 0.74 0.74 0.80 0.87 1.03 1.34 1.62 1.93 2.11 2.06 2.09 2.17 2.22 2.29 2.21 2.06 2.02 1.93 1.90 1.77
1.00 0.97 0.92 0.98 1.19 1.14 1.13 1.49 1.82 1.77 1.56 0.90 0.28 0.31 0.43 0.41 0.47 0.50 0.53 0.61 0.65 0.66 0.66 0.64 0.63 0.63 0.73 0.83 0.89 1.09 1.25 1.51 1.78 1.91 1.95 1.98 2.06 2.11 2.15 2.12 2.09 2.07 1.93 1.77
1.09 1.16 0.89 0.95 1.26 1.30 1.13 1.33 1.40 1.19 0.79 0.41 0.22 0.34 0.43 0.37 0.40 0.44 0.49 0.57 0.65 0.70 0.69 0.66 0.62 0.66 0.77 0.80 0.87 0.98 1.08 1.20 1.42 1.62 1.69 1.73 1.85 1.93 1.90 1.97 1.96 1.91 1.84 1.75
0.82 0.90 0.70 0.74 0.89 1.01 1.07 0.98 0.77 0.93 0.67 0.45 0.32 0.28 0.32 0.32 0.36 0.40 0.42 0.48 0.59 0.64 0.62 0.65 0.66 0.69 0.74 0.78 0.83 0.91 1.00 1.02 1.13 1.31 1.44 1.55 1.59 1.61 1.56 1.58 1.60 1.63 1.65 1.64
0.75 0.87 0.75 0.79 0.99 1.03 0.95 0.80 0.86 1.13 0.93 0.63 0.32 0.25 0.38 0.39 0.40 0.41 0.42 0.44 0.53 0.59 0.62 0.65 0.68 0.66 0.67 0.71 0.74 0.82 0.86 0.86 0.91 1.01 1.08 1.24 1.34 1.35 1.38 1.39 1.36 1.34 1.33 1.35
0.64 0.86 0.96 0.95 1.05 0.84 0.73 0.83 0.91 0.91 0.72 0.73 0.48 0.36 0.37 0.40 0.42 0.43 0.47 0.48 0.53 0.57 0.64 0.69 0.72 0.70 0.68 0.72 0.74 0.76 0.72 0.73 0.77 0.84 0.88 0.94 1.05 1.13 1.19 1.20 1.13 1.14 1.10 1.07
0.50 0.72 0.92 0.75 0.56 0.51 0.56 0.57 0.70 0.95 0.72 0.60 0.55 0.38 0.27 0.32 0.36 0.41 0.49 0.49 0.49 0.52 0.57 0.62 0.69 0.69 0.68 0.71 0.73 0.76 0.70 0.67 0.69 0.74 0.75 0.78 0.86 0.97 1.02 1.07 1.02 0.96 0.98 0.92
0.54 0.69 0.89 0.78 0.65 0.61 0.58 0.44 0.53 0.77 0.93 0.70 0.63 0.40 0.24 0.28 0.34 0.39 0.46 0.48 0.47 0.48 0.51 0.53 0.55 0.61 0.64 0.66 0.69 0.75 0.73 0.65 0.63 0.64 0.64 0.68 0.74 0.82 0.87 0.89 0.92 0.86 0.89 0.84
0.67 0.62 0.70 0.71 0.56 0.55 0.52 0.42 0.51 0.91 1.09 0.63 0.42 0.34 0.27 0.30 0.33 0.37 0.40 0.42 0.42 0.41 0.39 0.40 0.44 0.49 0.53 0.58 0.63 0.66 0.68 0.68 0.67 0.64 0.59 0.62 0.66 0.77 0.81 0.77 0.80 0.80 0.85 0.88
0.56 0.61 0.47 0.40 0.29 0.33 0.39 0.43 0.51 0.70 0.61 0.58 0.34 0.28 0.30 0.30 0.33 0.35 0.32 0.32 0.29 0.28 0.28 0.30 0.31 0.34 0.40 0.44 0.49 0.53 0.58 0.61 0.65 0.66 0.63 0.61 0.62 0.70 0.76 0.69 0.70 0.72 0.75 0.86
0.35 0.47 0.42 0.37 0.25 0.28 0.38 0.39 0.41 0.45 0.46 0.46 0.34 0.31 0.25 0.27 0.29 0.27 0.23 0.21 0.19 0.18 0.18 0.19 0.20 0.22 0.24 0.29 0.35 0.40 0.45 0.50 0.58 0.61 0.62 0.61 0.60 0.63 0.72 0.70 0.68 0.69 0.72 0.81
0.25 0.34 0.47 0.39 0.23 0.30 0.40 0.34 0.37 0.42 0.41 0.42 0.47 0.38 0.25 0.23 0.23 0.22 0.20 0.17 0.15 0.13 0.13 0.13 0.13 0.15 0.16 0.19 0.24 0.29 0.33 0.38 0.45 0.53 0.58 0.61 0.63 0.66 0.72 0.73 0.73 0.77 0.84 0.90
0.19 0.29 0.49 0.40 0.26 0.33 0.27 0.18 0.23 0.32 0.32 0.29 0.33 0.28 0.23 0.21 0.20 0.20 0.19 0.16 0.12 0.11 0.12 0.14 0.14 0.14 0.14 0.16 0.17 0.19 0.24 0.30 0.34 0.40 0.48 0.52 0.57 0.60 0.63 0.70 0.76 0.81 0.86 0.92
0.13 0.31 0.54 0.43 0.28 0.20 0.17 0.17 0.23 0.32 0.36 0.27 0.24 0.20 0.20 0.18 0.15 0.17 0.16 0.15 0.14 0.11 0.11 0.12 0.12 0.13 0.14 0.14 0.14 0.16 0.21 0.27 0.31 0.38 0.45 0.50 0.58 0.61 0.65 0.71 0.74 0.78 0.84 0.88
0.15 0.27 0.52 0.43 0.35 0.23 0.17 0.11 0.13 0.26 0.41 0.23 0.19 0.17 0.18 0.16 0.20 0.18 0.13 0.13 0.14 0.12 0.11 0.12 0.12 0.13 0.15 0.17 0.19 0.21 0.24 0.28 0.31 0.38 0.46 0.49 0.57 0.67 0.70 0.73 0.72 0.70 0.75 0.81
0.23 0.34 0.43 0.36 0.31 0.14 0.10 0.07 0.10 0.31 0.41 0.20 0.16 0.15 0.14 0.14 0.18 0.15 0.12 0.11 0.11 0.12 0.11 0.12 0.13 0.15 0.19 0.25 0.27 0.28 0.31 0.35 0.37 0.38 0.43 0.43 0.47 0.54 0.57 0.59 0.60 0.60 0.62 0.64
0.13 0.17 0.16 0.17 0.24 0.17 0.10 0.09 0.18 0.22 0.14 0.10 0.09 0.10 0.10 0.13 0.13 0.14 0.13 0.12 0.12 0.15 0.15 0.14 0.15 0.17 0.19 0.26 0.32 0.33 0.32 0.34 0.33 0.33 0.37 0.38 0.41 0.44 0.46 0.48 0.51 0.53 0.51 0.51
0.09 0.12 0.13 0.12 0.14 0.13 0.11 0.13 0.14 0.11 0.08 0.07 0.07 0.08 0.08 0.12 0.13 0.14 0.14 0.11 0.10 0.13 0.15 0.14 0.14 0.15 0.17 0.20 0.27 0.34 0.34 0.32 0.32 0.33 0.35 0.35 0.34 0.36 0.40 0.40 0.42 0.43 0.41 0.41
0.09 0.07 0.10 0.12 0.10 0.09 0.10 0.10 0.10 0.10 0.08 0.07 0.06 0.05 0.05 0.09 0.11 0.13 0.13 0.12 0.11 0.11 0.13 0.13 0.13 0.15 0.17 0.19 0.20 0.24 0.27 0.28 0.29 0.29 0.30 0.33 0.34 0.32 0.31 0.33 0.35 0.38 0.39 0.39
0.10 0.09 0.10 0.14 0.10 0.09 0.09 0.09 0.08 0.07 0.06 0.05 0.04 0.04 0.05 0.08 0.10 0.12 0.14 0.14 0.13 0.14 0.13 0.15 0.14 0.15 0.16 0.16 0.17 0.17 0.18 0.20 0.23 0.26 0.26 0.27 0.28 0.29 0.29 0.28 0.31 0.35 0.37 0.42
0.09 0.09 0.13 0.14 0.09 0.10 0.10 0.07 0.06 0.05 0.05 0.04 0.04 0.04 0.05 0.07 0.08 0.08 0.08 0.11 0.14 0.14 0.14 0.15 0.14 0.14 0.15 0.15 0.16 0.16 0.16 0.18 0.20 0.22 0.23 0.25 0.26 0.26 0.26 0.27 0.26 0.30 0.33 0.38